Deming, NM

11:12 AM MST on December 16, 2017 (GMT -0700)
Deming Municipal

Weather History for KDMN - October, 2012

Change the Weather History Date:

Monday, October 29, 2012

  Actual Average Record
Temperature  
Mean Temperature 58 °F 56 °F  
Max Temperature 82 °F 73 °F 87 °F (1950)
Min Temperature 33 °F 40 °F 23 °F (1970)
Degree Days  
Heating Degree Days 6    
Growing Degree Days 8 (Base 50)    
Moisture  
Dew Point 18 °F    
Average Humidity 28    
Maximum Humidity 48    
Minimum Humidity 7    
Precipitation  
Precipitation 0.00 in 0.02 in 0.39 in (1953)
Month to date precipitation 0.04 1.01  
Year to date precipitation 3.75 9.90  
Sea Level Pressure  
Sea Level Pressure 30.05 in    
Wind  
Wind Speed 6 mph (WNW)    
Max Wind Speed 22 mph    
Max Gust Speed 37 mph    
Visibility 10 miles    
Events      
T = Trace of Precipitation, MM = Missing Value Source: NWS Daily Summary

Daily Weather History Graph

Daily Weather History Graph

Search for Another Location

Airport or City:

Trip Planner

Search our weather history database for the weather conditions in past years. The results will help you decide how hot, cold, wet, or windy it might be!

Date:

Astronomy

Oct. 29, 2012 Rise Set
Actual Time 7:25 AM MDT 6:22 PM MDT
Civil Twilight 7:00 AM MDT 6:48 PM MDT
Nautical Twilight 6:31 AM MDT 7:16 PM MDT
Astronomical Twilight 6:03 AM MDT 7:45 PM MDT
Moon 6:19 PM MDT (10/29) 7:17 AM MDT (10/29)
Length of Visible Light 11h 47m
Length of Day
10h 56m
Full, 100% of the Moon is Illuminated
Oct 29
Full
Oct 29
Full
Nov 6
Last Quarter
Nov 13
New
Nov 20
First Quarter

Hourly Weather History & Observations

Time (MDT) Temp. Windchill Dew Point Humidity Pressure Visibility Wind Dir Wind Speed Gust Speed Precip Events Conditions
12:53 AM 43.0 °F 39.5 °F 23.0 °F 45% 30.06 in 10.0 mi NW 5.8 mph - N/A   Clear
1:53 AM 42.1 °F 40.2 °F 21.9 °F 45% 30.06 in 10.0 mi WNW 3.5 mph - N/A   Clear
2:53 AM 41.0 °F 39.0 °F 21.0 °F 45% 30.06 in 10.0 mi WNW 3.5 mph - N/A   Clear
3:53 AM 39.0 °F 34.0 °F 21.0 °F 49% 30.05 in 10.0 mi WNW 6.9 mph - N/A   Clear
4:53 AM 39.9 °F - 21.0 °F 47% 30.06 in 10.0 mi Calm Calm - N/A   Clear
5:53 AM 36.0 °F 32.1 °F 18.0 °F 48% 30.08 in 10.0 mi WNW 4.6 mph - N/A   Clear
6:53 AM 35.1 °F 30.1 °F 18.0 °F 50% 30.11 in 10.0 mi West 5.8 mph - N/A   Clear
7:53 AM 36.0 °F - 17.1 °F 46% 30.15 in 10.0 mi Calm Calm - N/A   Clear
8:53 AM 46.0 °F - 19.9 °F 35% 30.16 in 10.0 mi Calm Calm - N/A   Clear
9:53 AM 57.9 °F - 23.0 °F 26% 30.14 in 10.0 mi Calm Calm - N/A   Clear
10:53 AM 64.9 °F - 24.1 °F 21% 30.13 in 10.0 mi Variable 4.6 mph - N/A   Clear
11:53 AM 72.0 °F - 21.9 °F 15% 30.10 in 10.0 mi SW 3.5 mph - N/A   Clear
12:53 PM 75.0 °F - 19.9 °F 13% 30.07 in 10.0 mi Variable 5.8 mph - N/A   Clear
1:53 PM 77.0 °F - 21.0 °F 12% 30.02 in 10.0 mi WNW 6.9 mph - N/A   Clear
2:53 PM 81.0 °F - 19.9 °F 10% 29.98 in 10.0 mi WSW 9.2 mph - N/A   Clear
3:53 PM 82.0 °F - 15.1 °F 8% 29.95 in 9.0 mi West 18.4 mph 36.8 mph N/A   Clear
4:53 PM 80.1 °F - 10.0 °F 7% 29.95 in 10.0 mi West 16.1 mph - N/A   Clear
5:53 PM 77.0 °F - 10.9 °F 8% 29.97 in 10.0 mi WSW 12.7 mph - N/A   Clear
6:53 PM 69.1 °F - 12.0 °F 11% 30.01 in 10.0 mi West 8.1 mph - N/A   Clear
7:53 PM 62.1 °F - 16.0 °F 17% 30.04 in 10.0 mi WNW 8.1 mph - N/A   Clear
8:53 PM 61.0 °F - 15.1 °F 17% 30.03 in 10.0 mi West 9.2 mph - N/A   Clear
9:53 PM 63.0 °F - 16.0 °F 16% 30.01 in 10.0 mi NW 6.9 mph - N/A   Clear
10:53 PM 55.9 °F - 15.1 °F 20% 30.01 in 10.0 mi Calm Calm - N/A   Clear
11:53 PM 55.0 °F - 16.0 °F 22% 30.00 in 10.0 mi Calm Calm - N/A   Clear